Tracking 30995 objects as of 5-Jul-2025
HD Live streaming from Space Station
objects crossing your sky now

THORAD DELTA 1 DEB

Track THORAD DELTA 1 DEB now!
10-day predictions


NORAD ID: 8561
Int'l Code: 1974-089CY
Perigee: 1,343.5 km
Apogee: 1,455.9 km
Inclination: 101.5 °
Period: 113.6 minutes
Semi major axis: 7770 km
RCS: 0.0788 m2 (small)
Launch date: November 15, 1974
Source: United States (US)
Launch site: AIR FORCE WESTERN TEST RANGE (AFWTR)

Note: This is SATELLITE DEBRIS
Your satellite tracking list
SL-8 DEB
Track 1 satellite(s)




NASA's NSSDC Master Catalog

Two Line Element Set (TLE):
1 08561U 74089CY  25186.62526729  .00000205  00000-0  12894-2 0  9992
2 08561 101.5260 225.8433 0072310 140.8673 341.8162 12.67404795331407
Source of the keplerian elements: AFSPC